TimeCST,TemperatureF,Dew PointF,Humidity,Sea Level PressureIn,VisibilityMPH,Wind Direction,Wind SpeedMPH,Gust SpeedMPH,PrecipitationIn,Events,Conditions,WindDirDegrees,DateUTC
12:02 AM,-0.4,-4.0,85,30.13,7.0,Calm,Calm,-,N/A,,Clear,0,2012-12-30 06:02:00
12:22 AM,-0.4,-5.8,78,30.13,7.0,Calm,Calm,-,N/A,,Clear,0,2012-12-30 06:22:00
1:02 AM,-2.2,-5.8,85,30.14,7.0,Calm,Calm,-,N/A,,Clear,0,2012-12-30 07:02:00
1:22 AM,-2.2,-5.8,85,30.13,7.0,Calm,Calm,-,N/A,,Clear,0,2012-12-30 07:22:00
1:42 AM,-4.0,-5.8,92,30.14,7.0,Calm,Calm,-,N/A,,Clear,0,2012-12-30 07:42:00
2:02 AM,-4.0,-7.6,85,30.14,7.0,Calm,Calm,-,N/A,,Clear,0,2012-12-30 08:02:00
2:22 AM,-4.0,-7.6,85,30.15,7.0,Calm,Calm,-,N/A,,Clear,0,2012-12-30 08:22:00
2:42 AM,-4.0,-7.6,85,30.16,10.0,Calm,Calm,-,N/A,,Clear,0,2012-12-30 08:42:00
3:02 AM,-4.0,-7.6,85,30.15,10.0,Calm,Calm,-,N/A,,Clear,0,2012-12-30 09:02:00
3:22 AM,-4.0,-7.6,85,30.16,10.0,Calm,Calm,-,N/A,,Clear,0,2012-12-30 09:22:00
3:42 AM,-4.0,-7.6,85,30.16,10.0,Calm,Calm,-,N/A,,Clear,0,2012-12-30 09:42:00
4:02 AM,-4.0,-7.6,85,30.16,10.0,Calm,Calm,-,N/A,,Clear,0,2012-12-30 10:02:00
4:22 AM,-4.0,-7.6,85,30.15,10.0,Calm,Calm,-,N/A,,Clear,0,2012-12-30 10:22:00
4:41 AM,-4.0,-7.6,85,30.15,10.0,Calm,Calm,-,N/A,,Clear,0,2012-12-30 10:41:00
5:02 AM,-4.0,-7.6,85,30.14,10.0,Calm,Calm,-,N/A,,Clear,0,2012-12-30 11:02:00
5:22 AM,-4.0,-7.6,85,30.15,10.0,Calm,Calm,-,N/A,,Clear,0,2012-12-30 11:22:00
5:42 AM,-4.0,-7.6,85,30.14,10.0,Calm,Calm,-,N/A,,Clear,0,2012-12-30 11:42:00
6:01 AM,-2.2,-7.6,78,30.14,10.0,Calm,Calm,-,N/A,,Clear,0,2012-12-30 12:01:00
6:22 AM,-2.2,-5.8,85,30.15,10.0,Calm,Calm,-,N/A,,Clear,0,2012-12-30 12:22:00
6:42 AM,-4.0,-7.6,85,30.14,7.0,Calm,Calm,-,N/A,,Clear,0,2012-12-30 12:42:00
7:02 AM,-4.0,-7.6,85,30.13,10.0,Calm,Calm,-,N/A,,Clear,0,2012-12-30 13:02:00
7:22 AM,-2.2,-7.6,78,30.13,10.0,South,4.6,-,N/A,,Clear,190,2012-12-30 13:22:00
7:42 AM,-2.2,-7.6,78,30.13,10.0,Calm,Calm,-,N/A,,Clear,0,2012-12-30 13:42:00
8:01 AM,-4.0,-7.6,85,30.12,7.0,Calm,Calm,-,N/A,,Clear,0,2012-12-30 14:01:00
8:22 AM,-4.0,-7.6,85,30.12,7.0,Calm,Calm,-,N/A,,Clear,0,2012-12-30 14:22:00
8:41 AM,-4.0,-7.6,85,30.13,10.0,Calm,Calm,-,N/A,,Clear,0,2012-12-30 14:41:00
9:02 AM,-0.4,-4.0,85,30.13,7.0,Calm,Calm,-,N/A,,Clear,0,2012-12-30 15:02:00
9:21 AM,1.4,-4.0,78,30.13,7.0,Calm,Calm,-,N/A,,Clear,0,2012-12-30 15:21:00
9:42 AM,5.0,-0.4,78,30.14,7.0,Calm,Calm,-,N/A,,Clear,0,2012-12-30 15:42:00
10:02 AM,5.0,1.4,85,30.13,5.0,Calm,Calm,-,N/A,,Clear,0,2012-12-30 16:02:00
10:22 AM,6.8,3.2,85,30.13,7.0,South,3.5,-,N/A,,Clear,170,2012-12-30 16:22:00
10:42 AM,8.6,3.2,79,30.12,7.0,South,3.5,-,N/A,,Clear,180,2012-12-30 16:42:00
11:02 AM,10.4,5.0,79,30.10,7.0,South,4.6,-,N/A,,Clear,170,2012-12-30 17:02:00
11:22 AM,10.4,5.0,79,30.09,7.0,South,4.6,-,N/A,,Clear,180,2012-12-30 17:22:00
11:41 AM,12.2,5.0,73,30.07,7.0,SSE,3.5,-,N/A,,Clear,150,2012-12-30 17:41:00
12:02 PM,14.0,6.8,73,30.05,7.0,South,3.5,-,N/A,,Clear,180,2012-12-30 18:02:00
12:22 PM,14.0,6.8,73,30.04,7.0,South,4.6,-,N/A,,Clear,180,2012-12-30 18:22:00
12:42 PM,14.0,6.8,73,30.03,10.0,South,5.8,-,N/A,,Clear,170,2012-12-30 18:42:00
1:02 PM,17.6,8.6,68,30.01,10.0,South,4.6,-,N/A,,Clear,180,2012-12-30 19:02:00
1:21 PM,17.6,8.6,68,30.00,10.0,SE,3.5,-,N/A,,Clear,140,2012-12-30 19:21:00
1:42 PM,17.6,8.6,68,29.98,10.0,SE,5.8,-,N/A,,Clear,130,2012-12-30 19:42:00
2:02 PM,15.8,6.8,68,29.97,10.0,SE,5.8,-,N/A,,Clear,130,2012-12-30 20:02:00
2:22 PM,15.8,6.8,68,29.96,10.0,SE,4.6,-,N/A,,Clear,130,2012-12-30 20:22:00
2:42 PM,14.0,6.8,73,29.95,10.0,ESE,3.5,-,N/A,,Clear,120,2012-12-30 20:42:00
3:02 PM,14.0,6.8,73,29.94,10.0,ESE,4.6,-,N/A,,Clear,110,2012-12-30 21:02:00
3:22 PM,14.0,6.8,73,29.94,10.0,ESE,4.6,-,N/A,,Clear,110,2012-12-30 21:22:00
3:41 PM,14.0,6.8,73,29.93,10.0,East,4.6,-,N/A,,Clear,100,2012-12-30 21:41:00
4:02 PM,14.0,6.8,73,29.92,10.0,SE,3.5,-,N/A,,Clear,130,2012-12-30 22:02:00
4:22 PM,12.2,5.0,73,29.91,10.0,ESE,3.5,-,N/A,,Clear,110,2012-12-30 22:22:00
5:07 PM,12.2,6.8,79,29.89,10.0,Calm,Calm,-,N/A,,Clear,0,2012-12-30 23:07:00
5:21 PM,10.4,5.0,79,29.90,10.0,Calm,Calm,-,N/A,,Clear,0,2012-12-30 23:21:00
5:42 PM,10.4,5.0,79,29.91,10.0,Calm,Calm,-,N/A,,Mostly Cloudy,0,2012-12-30 23:42:00
6:02 PM,12.2,8.6,85,29.90,10.0,Calm,Calm,-,N/A,,Overcast,0,2012-12-31 00:02:00
6:21 PM,12.2,8.6,85,29.90,10.0,Calm,Calm,-,N/A,,Overcast,0,2012-12-31 00:21:00
6:42 PM,12.2,8.6,85,29.89,10.0,Calm,Calm,-,N/A,,Overcast,0,2012-12-31 00:42:00
7:02 PM,12.2,8.6,85,29.88,10.0,Calm,Calm,-,N/A,,Overcast,0,2012-12-31 01:02:00
7:22 PM,12.2,6.8,79,29.89,10.0,Calm,Calm,-,N/A,,Mostly Cloudy,0,2012-12-31 01:22:00
7:41 PM,12.2,8.6,85,29.89,7.0,Calm,Calm,-,N/A,,Scattered Clouds,0,2012-12-31 01:41:00
8:02 PM,8.6,5.0,85,29.87,7.0,Calm,Calm,-,N/A,,Mostly Cloudy,0,2012-12-31 02:02:00
8:21 PM,10.4,5.0,79,29.88,7.0,Calm,Calm,-,N/A,,Mostly Cloudy,0,2012-12-31 02:21:00
8:42 PM,8.6,5.0,85,29.89,7.0,Calm,Calm,-,N/A,,Scattered Clouds,0,2012-12-31 02:42:00
9:02 PM,6.8,3.2,85,29.89,7.0,Calm,Calm,-,N/A,,Clear,0,2012-12-31 03:02:00
9:22 PM,6.8,3.2,85,29.88,7.0,Calm,Calm,-,N/A,,Clear,0,2012-12-31 03:22:00
10:01 PM,5.0,1.4,85,29.89,7.0,Calm,Calm,-,N/A,,Clear,0,2012-12-31 04:01:00
10:22 PM,5.0,1.4,85,29.90,7.0,Calm,Calm,-,N/A,,Clear,0,2012-12-31 04:22:00
10:42 PM,3.2,-0.4,85,29.90,7.0,Calm,Calm,-,N/A,,Scattered Clouds,0,2012-12-31 04:42:00
11:02 PM,5.0,1.4,85,29.91,7.0,Calm,Calm,-,N/A,,Overcast,0,2012-12-31 05:02:00
11:22 PM,6.8,3.2,85,29.92,7.0,Calm,Calm,-,N/A,,Scattered Clouds,0,2012-12-31 05:22:00
11:41 PM,6.8,3.2,85,29.92,7.0,Calm,Calm,-,N/A,,Clear,0,2012-12-31 05:41:00